STARLINK-32851, 62810

Orbit data source: Space-Track

STARLINK-32851, 62810 is a payload satellite owned by SpaceX/Seattle (US) in LEO that was launched on Fri, 24 Jan 2025 UTC via an FALCON 9 launch vehicle from the Air Force Western Test Range (AFWTR). Payload-class satellites include a variety of spacecraft equipped with specific instruments for various scientific and technological missions. These include communications satellites like Starlink; space stations such as the ISS; scientific satellites like the Hubble; Earth observation satellites from companies like Planet Labs, Umbra, and HawkEye 360; GPS; miniature CubeSats for education and research; and military/defense satellites.

Loading next visibility...
Identifier
62810, 2025-018E
Orbit
LEO
Country
Flag of USUS
Related business
Manufacturer
SpaceX/Seattle
Mission
Operational Commercial Communications
Bus & Motor
STARLINK V2M, Unknown motor
Mass
730 kg wet, ~700 kg dry
Launch date (UTC)
2025-01-24 (1 year ago)
Launch vehicle
FALCON 9
Launch site
Air Force Western Test Range (AFWTR)
Object type
Payload
Rocket body
Debris
Shape & HBR
Box + 2 Pan, 17.7 m
Radar Cross Section
33.884 m², Large (>1 m²)

Expand to show TLE details & history
Last TLE update: 19 hours ago

TLE from 19 hours ago
0 STARLINK-32851
1 62810U 25018E   26123.51741453  .00035728  00000-0  12124-2 0  9994
2 62810  53.1605  54.8656 0002305  83.4481 276.6782 15.30205462 71566
Epoch: 2026-05-03T12:25Z
TLE epoch observation values (Epoch: 2026-05-03T12:25:04.615Z)
Latitude
-0.00003°
Longitude
7.17653°
Altitude
475.915 km
Speed
7.629 km/s
True Right ascension
03h 39m 27s
True Declination
0° 00' 00"
Sunlit
Object was in daylight at epoch
Visualization orbit readout
Latitude
Unknown
Longitude
Unknown
Altitude
Unknown
Speed
Unknown
Apparent Right ascension
Unknown
Apparent Declination
Unknown
Sunlit
N/A
Visualization observer readout
Local Sidereal Time
14:44:00
Azimuth
Unknown
Elevation
Unknown
Doppler factor
Unknown
Orbital elements
Apogee altitude
477.035 km
Perigee altitude
473.875 km
Semi-major axis
6,853.592 km
Eccentricity
0.00023
Inclination
53.1605°
RAAN
54.8656°
Arg. of periapsis
83.4481°
True anomaly
276.65196°
Mean anomaly
276.6782°
Eccentric anomaly
276.66508°
Mean motion
3.8253 °/min
Orbital period
94.11 mins
BSTAR
0.0012124
Loading maneuver chart data...
Computing Atmospheric mass density...
Loading historical data...
Loading historical data...
Loading historical data...
Loading historical data...
Loading historical data...
Loading historical data...
Loading historical data...

Documentation

Showing up to 5 results
|